Time,TemperatureF,DewpointF,PressureIn,WindDirection,WindDirectionDegrees,WindSpeedMPH,WindSpeedGustMPH,Humidity,HourlyPrecipIn,Conditions,Clouds,dailyrainin,SoftwareType,DateUTC
2013-06-16 00:01:00,66.2,44.8,30.01,South,180,4.0,4.7,46,0.00,,,0.00,WUHU216HW,2013-06-16 05:01:00,
2013-06-16 00:06:00,66.2,44.8,30.00,SSW,203,1.8,4.0,46,0.00,,,0.00,WUHU216HW,2013-06-16 05:06:00,
2013-06-16 00:11:00,66.2,44.2,30.00,West,270,1.1,4.7,45,0.00,,,0.00,WUHU216HW,2013-06-16 05:11:00,
2013-06-16 00:16:00,66.2,44.2,30.00,SE,135,2.9,4.7,45,0.00,,,0.00,WUHU216HW,2013-06-16 05:16:00,
2013-06-16 00:21:00,66.4,44.9,30.00,SSE,158,1.8,4.7,46,0.00,,,0.00,WUHU216HW,2013-06-16 05:21:00,
2013-06-16 00:25:00,66.4,44.9,29.99,SSE,158,2.0,4.7,46,0.00,,,0.00,WUHU216HW,2013-06-16 05:25:00,
2013-06-16 00:30:00,66.6,45.1,30.00,SE,135,1.3,4.7,46,0.00,,,0.00,WUHU216HW,2013-06-16 05:30:00,
2013-06-16 00:35:00,66.6,45.1,29.99,SSW,203,1.3,4.7,46,0.00,,,0.00,WUHU216HW,2013-06-16 05:35:00,
2013-06-16 00:40:00,66.6,45.1,29.99,SSE,158,1.1,4.3,46,0.00,,,0.00,WUHU216HW,2013-06-16 05:40:00,
2013-06-16 00:45:00,66.6,45.7,29.99,SSW,203,5.8,6.3,47,0.00,,,0.00,WUHU216HW,2013-06-16 05:45:00,
2013-06-16 00:50:00,66.8,45.9,29.99,SSW,203,2.7,6.3,47,0.00,,,0.00,WUHU216HW,2013-06-16 05:50:00,
2013-06-16 00:55:00,66.8,45.9,29.99,SSE,158,1.6,5.8,47,0.00,,,0.00,WUHU216HW,2013-06-16 05:55:00,
2013-06-16 01:00:00,66.8,45.9,29.99,SSE,158,0.4,4.7,47,0.00,,,0.00,WUHU216HW,2013-06-16 06:00:00,
2013-06-16 01:05:00,67.0,46.0,29.99,SSE,158,1.1,3.1,47,0.00,,,0.00,WUHU216HW,2013-06-16 06:05:00,
2013-06-16 01:10:00,67.0,46.0,29.99,SSE,158,1.1,2.7,47,0.00,,,0.00,WUHU216HW,2013-06-16 06:10:00,
2013-06-16 01:15:00,67.0,46.0,29.98,WSW,248,1.1,2.5,47,0.00,,,0.00,WUHU216HW,2013-06-16 06:15:00,
2013-06-16 01:20:00,67.0,45.5,29.98,SSW,203,0.4,3.4,46,0.00,,,0.00,WUHU216HW,2013-06-16 06:20:00,
2013-06-16 01:25:00,67.0,46.0,29.98,SW,225,2.5,3.4,47,0.00,,,0.00,WUHU216HW,2013-06-16 06:25:00,
2013-06-16 01:30:00,67.0,46.0,29.98,SSE,158,0.0,2.9,47,0.00,,,0.00,WUHU216HW,2013-06-16 06:30:00,
2013-06-16 01:35:00,66.8,45.9,29.98,SSW,203,2.7,3.1,47,0.00,,,0.00,WUHU216HW,2013-06-16 06:35:00,
2013-06-16 01:40:00,66.6,45.7,29.98,SSE,158,1.3,3.1,47,0.00,,,0.00,WUHU216HW,2013-06-16 06:40:00,
2013-06-16 01:45:00,66.6,45.7,29.98,SSE,158,0.2,3.4,47,0.00,,,0.00,WUHU216HW,2013-06-16 06:45:00,
2013-06-16 01:50:00,66.6,45.7,29.98,SSE,158,0.4,3.4,47,0.00,,,0.00,WUHU216HW,2013-06-16 06:50:00,
2013-06-16 01:55:00,66.6,45.7,29.98,SSW,203,1.1,2.0,47,0.00,,,0.00,WUHU216HW,2013-06-16 06:55:00,
2013-06-16 02:00:00,66.8,45.9,29.98,SW,225,0.7,1.6,47,0.00,,,0.00,WUHU216HW,2013-06-16 07:00:00,
2013-06-16 02:05:00,66.8,45.9,29.99,WSW,248,0.4,1.6,47,0.00,,,0.00,WUHU216HW,2013-06-16 07:05:00,
2013-06-16 02:10:00,66.8,45.9,29.98,SSW,203,0.4,1.1,47,0.00,,,0.00,WUHU216HW,2013-06-16 07:10:00,
2013-06-16 02:15:00,66.8,45.9,29.98,South,180,0.7,1.3,47,0.00,,,0.00,WUHU216HW,2013-06-16 07:15:00,
2013-06-16 02:20:00,66.6,45.7,29.99,SW,225,0.7,1.3,47,0.00,,,0.00,WUHU216HW,2013-06-16 07:20:00,
2013-06-16 02:25:00,66.6,45.7,29.98,SSE,158,0.7,1.8,47,0.00,,,0.00,WUHU216HW,2013-06-16 07:25:00,
2013-06-16 02:30:00,66.6,45.7,29.98,SSE,158,0.4,2.2,47,0.00,,,0.00,WUHU216HW,2013-06-16 07:30:00,
2013-06-16 02:35:00,66.6,45.7,29.98,West,270,1.3,2.7,47,0.00,,,0.00,WUHU216HW,2013-06-16 07:35:00,
2013-06-16 02:40:00,66.6,45.7,29.99,SSW,203,2.9,2.9,47,0.00,,,0.00,WUHU216HW,2013-06-16 07:40:00,
2013-06-16 02:45:00,66.8,45.9,29.98,WSW,248,0.4,3.4,47,0.00,,,0.00,WUHU216HW,2013-06-16 07:45:00,
2013-06-16 02:50:00,66.8,45.9,29.99,SE,135,2.0,3.4,47,0.00,,,0.00,WUHU216HW,2013-06-16 07:50:00,
2013-06-16 02:55:00,67.0,46.0,29.98,South,180,2.5,5.6,47,0.00,,,0.00,WUHU216HW,2013-06-16 07:55:00,
2013-06-16 03:00:00,67.1,45.6,29.98,South,180,2.9,5.6,46,0.00,,,0.00,WUHU216HW,2013-06-16 08:00:00,
2013-06-16 03:05:00,67.3,45.2,29.99,South,180,1.6,3.4,45,0.00,,,0.00,WUHU216HW,2013-06-16 08:05:00,
2013-06-16 03:10:00,67.7,45.5,29.99,SSE,158,1.8,5.8,45,0.00,,,0.00,WUHU216HW,2013-06-16 08:10:00,
2013-06-16 03:15:00,67.7,45.5,29.98,SSE,158,0.7,5.8,45,0.00,,,0.00,WUHU216HW,2013-06-16 08:15:00,
2013-06-16 03:20:00,67.7,44.9,29.98,South,180,1.1,5.4,44,0.00,,,0.00,WUHU216HW,2013-06-16 08:20:00,
2013-06-16 03:25:00,67.7,44.9,29.98,SSE,158,0.7,5.4,44,0.00,,,0.00,WUHU216HW,2013-06-16 08:25:00,
2013-06-16 03:30:00,67.7,44.9,29.98,SE,135,0.2,5.1,44,0.00,,,0.00,WUHU216HW,2013-06-16 08:30:00,
2013-06-16 03:35:00,67.7,44.9,29.99,SSE,158,1.8,3.1,44,0.00,,,0.00,WUHU216HW,2013-06-16 08:35:00,
2013-06-16 03:40:00,67.7,44.9,29.98,SSE,158,2.0,3.6,44,0.00,,,0.00,WUHU216HW,2013-06-16 08:40:00,
2013-06-16 03:45:00,67.5,44.7,29.98,SSW,203,1.6,3.6,44,0.00,,,0.00,WUHU216HW,2013-06-16 08:45:00,
2013-06-16 03:50:00,67.3,44.6,29.99,SSE,158,1.1,3.6,44,0.00,,,0.00,WUHU216HW,2013-06-16 08:50:00,
2013-06-16 03:55:00,67.5,44.7,29.99,South,180,0.4,2.5,44,0.00,,,0.00,WUHU216HW,2013-06-16 08:55:00,
2013-06-16 04:00:00,67.5,44.7,29.99,SW,225,2.0,3.4,44,0.00,,,0.00,WUHU216HW,2013-06-16 09:00:00,
2013-06-16 04:05:00,67.5,44.7,29.99,SSE,158,2.0,3.4,44,0.00,,,0.00,WUHU216HW,2013-06-16 09:05:00,
2013-06-16 04:10:00,67.7,44.3,29.99,SSE,158,1.8,2.5,43,0.00,,,0.00,WUHU216HW,2013-06-16 09:10:00,
2013-06-16 04:15:00,67.7,44.3,29.99,South,180,0.9,3.4,43,0.00,,,0.00,WUHU216HW,2013-06-16 09:15:00,
2013-06-16 04:20:00,67.5,44.1,29.99,SW,225,1.1,3.4,43,0.00,,,0.00,WUHU216HW,2013-06-16 09:20:00,
2013-06-16 04:25:00,67.5,44.1,29.99,SSE,158,0.7,1.8,43,0.00,,,0.00,WUHU216HW,2013-06-16 09:25:00,
2013-06-16 04:30:00,67.3,44.0,29.99,SE,135,0.4,1.8,43,0.00,,,0.00,WUHU216HW,2013-06-16 09:30:00,
2013-06-16 04:35:00,67.3,44.0,29.99,SE,135,0.2,4.0,43,0.00,,,0.00,WUHU216HW,2013-06-16 09:35:00,
2013-06-16 04:40:00,67.3,44.6,29.99,SSE,158,1.1,4.0,44,0.00,,,0.00,WUHU216HW,2013-06-16 09:40:00,
2013-06-16 04:45:00,67.3,44.6,29.99,South,180,0.4,1.3,44,0.00,,,0.00,WUHU216HW,2013-06-16 09:45:00,
2013-06-16 04:50:00,67.3,44.6,29.99,SSE,158,1.8,1.8,44,0.00,,,0.00,WUHU216HW,2013-06-16 09:50:00,
2013-06-16 04:55:00,67.3,44.6,30.00,South,180,0.7,1.8,44,0.00,,,0.00,WUHU216HW,2013-06-16 09:55:00,
2013-06-16 05:00:00,67.1,44.4,29.99,SSE,158,0.4,1.8,44,0.00,,,0.00,WUHU216HW,2013-06-16 10:00:00,
2013-06-16 05:05:00,67.1,44.4,29.99,South,180,0.4,1.1,44,0.00,,,0.00,WUHU216HW,2013-06-16 10:05:00,
2013-06-16 05:10:00,66.8,44.1,29.99,SSE,158,0.0,1.1,44,0.00,,,0.00,WUHU216HW,2013-06-16 10:10:00,
2013-06-16 05:15:00,66.8,44.1,29.99,SSE,158,0.0,1.1,44,0.00,,,0.00,WUHU216HW,2013-06-16 10:15:00,
2013-06-16 05:20:00,66.6,44.6,30.00,SSE,158,0.0,0.9,45,0.00,,,0.00,WUHU216HW,2013-06-16 10:20:00,
2013-06-16 05:25:00,66.6,44.6,30.00,SSE,158,0.0,0.2,45,0.00,,,0.00,WUHU216HW,2013-06-16 10:25:00,
2013-06-16 05:30:00,66.6,44.6,30.00,South,180,0.7,0.7,45,0.00,,,0.00,WUHU216HW,2013-06-16 10:30:00,
2013-06-16 05:35:00,66.4,44.4,30.00,SSE,158,0.4,0.7,45,0.00,,,0.00,WUHU216HW,2013-06-16 10:35:00,
2013-06-16 05:40:00,66.2,44.2,30.00,SSW,203,0.0,0.9,45,0.00,,,0.00,WUHU216HW,2013-06-16 10:40:00,
2013-06-16 05:45:00,66.2,44.2,30.00,SSW,203,0.0,0.9,45,0.00,,,0.00,WUHU216HW,2013-06-16 10:45:00,
2013-06-16 05:50:00,66.2,44.2,30.00,SSE,158,0.0,1.3,45,0.00,,,0.00,WUHU216HW,2013-06-16 10:50:00,
2013-06-16 05:55:00,66.2,44.8,30.00,SSE,158,0.4,1.3,46,0.00,,,0.00,WUHU216HW,2013-06-16 10:55:00,
2013-06-16 06:00:00,66.4,44.4,30.00,SSE,158,1.1,1.1,45,0.00,,,0.00,WUHU216HW,2013-06-16 11:00:00,
2013-06-16 06:05:00,66.4,44.9,30.00,SSE,158,0.2,1.8,46,0.00,,,0.00,WUHU216HW,2013-06-16 11:05:00,
2013-06-16 06:10:00,66.4,44.4,30.00,SSW,203,0.7,1.8,45,0.00,,,0.00,WUHU216HW,2013-06-16 11:10:00,
2013-06-16 06:15:00,66.6,44.6,30.00,SW,225,0.7,1.8,45,0.00,,,0.00,WUHU216HW,2013-06-16 11:15:00,
2013-06-16 06:19:00,66.6,44.6,30.00,SW,225,1.6,2.5,45,0.00,,,0.00,WUHU216HW,2013-06-16 11:19:00,
2013-06-16 06:24:00,66.6,44.6,30.00,SSW,203,0.4,2.5,45,0.00,,,0.00,WUHU216HW,2013-06-16 11:24:00,
2013-06-16 06:29:00,66.8,44.6,30.01,South,180,0.9,1.6,45,0.00,,,0.00,WUHU216HW,2013-06-16 11:29:00,
2013-06-16 06:35:00,67.0,44.8,30.00,SW,225,0.4,0.9,45,0.00,,,0.00,WUHU216HW,2013-06-16 11:35:00,
2013-06-16 06:40:00,67.1,45.0,30.00,SW,225,1.6,2.0,45,0.00,,,0.00,WUHU216HW,2013-06-16 11:40:00,
2013-06-16 06:45:00,67.3,45.2,30.00,SSE,158,0.4,2.0,45,0.00,,,0.00,WUHU216HW,2013-06-16 11:45:00,
2013-06-16 06:50:00,67.5,44.7,30.00,SW,225,1.8,2.0,44,0.00,,,0.00,WUHU216HW,2013-06-16 11:50:00,
2013-06-16 06:55:00,67.5,44.7,30.00,SW,225,1.3,2.0,44,0.00,,,0.00,WUHU216HW,2013-06-16 11:55:00,
2013-06-16 07:00:00,67.9,45.1,30.00,SW,225,0.7,2.5,44,0.00,,,0.00,WUHU216HW,2013-06-16 12:00:00,
2013-06-16 07:05:00,67.9,44.5,30.00,SE,135,0.4,2.5,43,0.00,,,0.00,WUHU216HW,2013-06-16 12:05:00,
2013-06-16 07:09:00,68.0,44.7,30.00,WSW,248,0.0,0.9,43,0.00,,,0.00,WUHU216HW,2013-06-16 12:09:00,
2013-06-16 07:14:00,68.2,44.8,30.00,SSW,203,0.7,1.8,43,0.00,,,0.00,WUHU216HW,2013-06-16 12:14:00,
2013-06-16 07:19:00,68.4,45.5,30.00,NW,315,0.9,1.8,44,0.00,,,0.00,WUHU216HW,2013-06-16 12:19:00,
2013-06-16 07:24:00,68.8,45.3,30.00,SSW,203,1.3,1.3,43,0.00,,,0.00,WUHU216HW,2013-06-16 12:24:00,
2013-06-16 07:29:00,68.9,45.5,30.00,SW,225,0.4,1.6,43,0.00,,,0.00,WUHU216HW,2013-06-16 12:29:00,
2013-06-16 07:34:00,69.3,45.2,30.01,SE,135,2.5,2.5,42,0.00,,,0.00,WUHU216HW,2013-06-16 12:34:00,
2013-06-16 07:39:00,69.5,44.7,30.01,WSW,248,2.7,2.7,41,0.00,,,0.00,WUHU216HW,2013-06-16 12:39:00,
2013-06-16 07:44:00,70.0,45.2,30.01,SW,225,2.9,2.9,41,0.00,,,0.00,WUHU216HW,2013-06-16 12:44:00,
2013-06-16 07:49:00,70.9,45.5,30.00,SW,225,0.0,2.9,40,0.00,,,0.00,WUHU216HW,2013-06-16 12:49:00,
2013-06-16 07:54:00,71.6,45.4,30.01,SE,135,0.0,2.9,39,0.00,,,0.00,WUHU216HW,2013-06-16 12:54:00,
2013-06-16 07:59:00,72.4,45.3,30.01,SSE,158,0.4,4.5,38,0.00,,,0.00,WUHU216HW,2013-06-16 12:59:00,
2013-06-16 08:04:00,72.5,45.4,30.01,South,180,0.4,4.5,38,0.00,,,0.00,WUHU216HW,2013-06-16 13:04:00,
2013-06-16 08:09:00,73.4,46.2,30.02,SW,225,2.5,2.5,38,0.00,,,0.00,WUHU216HW,2013-06-16 13:09:00,
2013-06-16 08:14:00,73.6,46.4,30.02,SSW,203,4.5,4.5,38,0.00,,,0.00,WUHU216HW,2013-06-16 13:14:00,
2013-06-16 08:19:00,72.7,45.5,30.02,South,180,0.4,4.5,38,0.00,,,0.00,WUHU216HW,2013-06-16 13:19:00,
2013-06-16 08:24:00,72.5,45.4,30.02,SW,225,2.7,4.5,38,0.00,,,0.00,WUHU216HW,2013-06-16 13:24:00,
2013-06-16 08:29:00,72.4,45.3,30.02,SW,225,1.1,4.3,38,0.00,,,0.00,WUHU216HW,2013-06-16 13:29:00,
2013-06-16 08:34:00,72.5,45.4,30.02,SE,135,1.3,2.7,38,0.00,,,0.00,WUHU216HW,2013-06-16 13:34:00,
2013-06-16 08:39:00,74.5,46.5,30.02,SSE,158,2.2,6.0,37,0.00,,,0.00,WUHU216HW,2013-06-16 13:39:00,
2013-06-16 08:44:00,74.3,46.3,30.02,West,270,1.6,6.0,37,0.00,,,0.00,WUHU216HW,2013-06-16 13:44:00,
2013-06-16 08:49:00,75.4,45.7,30.02,SW,225,3.8,4.5,35,0.00,,,0.00,WUHU216HW,2013-06-16 13:49:00,
2013-06-16 08:54:00,76.3,47.3,30.02,SSE,158,0.7,4.7,36,0.00,,,0.00,WUHU216HW,2013-06-16 13:54:00,
2013-06-16 08:59:00,77.2,47.4,30.02,WSW,248,3.6,6.5,35,0.00,,,0.00,WUHU216HW,2013-06-16 13:59:00,
2013-06-16 09:04:00,78.1,49.6,30.02,SSE,158,0.9,6.5,37,0.00,,,0.00,WUHU216HW,2013-06-16 14:04:00,
2013-06-16 09:09:00,79.0,48.9,30.02,West,270,4.3,5.8,35,0.00,,,0.00,WUHU216HW,2013-06-16 14:09:00,
2013-06-16 09:14:00,79.7,51.0,30.02,SW,225,4.5,5.8,37,0.00,,,0.00,WUHU216HW,2013-06-16 14:14:00,
2013-06-16 09:19:00,79.9,48.9,30.02,SW,225,5.8,5.8,34,0.00,,,0.00,WUHU216HW,2013-06-16 14:19:00,
2013-06-16 09:24:00,80.6,51.8,30.02,SE,135,2.0,5.8,37,0.00,,,0.00,WUHU216HW,2013-06-16 14:24:00,
2013-06-16 09:29:00,80.8,52.0,30.02,WSW,248,5.4,5.8,37,0.00,,,0.00,WUHU216HW,2013-06-16 14:29:00,
2013-06-16 09:34:00,80.6,50.3,30.02,WSW,248,3.8,7.2,35,0.00,,,0.00,WUHU216HW,2013-06-16 14:34:00,
2013-06-16 09:39:00,81.0,52.2,30.02,SW,225,3.4,7.2,37,0.00,,,0.00,WUHU216HW,2013-06-16 14:39:00,
2013-06-16 09:44:00,80.8,49.7,30.02,WSW,248,2.7,6.9,34,0.00,,,0.00,WUHU216HW,2013-06-16 14:44:00,
2013-06-16 09:49:00,81.0,52.2,30.02,SSW,203,4.5,6.9,37,0.00,,,0.00,WUHU216HW,2013-06-16 14:49:00,
2013-06-16 09:54:00,81.0,50.6,30.01,SSW,203,5.6,7.2,35,0.00,,,0.00,WUHU216HW,2013-06-16 14:54:00,
2013-06-16 09:59:00,81.7,53.6,30.01,WSW,248,1.1,7.2,38,0.00,,,0.00,WUHU216HW,2013-06-16 14:59:00,
2013-06-16 10:04:00,82.1,53.1,30.01,SSW,203,6.5,6.9,37,0.00,,,0.00,WUHU216HW,2013-06-16 15:04:00,
2013-06-16 10:09:00,81.7,53.6,30.01,WSW,248,5.1,6.7,38,0.00,,,0.00,WUHU216HW,2013-06-16 15:09:00,
2013-06-16 10:14:00,81.5,53.5,30.01,SSW,203,4.0,6.7,38,0.00,,,0.00,WUHU216HW,2013-06-16 15:14:00,
2013-06-16 10:19:00,81.4,51.0,30.01,SW,225,3.8,9.2,35,0.00,,,0.00,WUHU216HW,2013-06-16 15:19:00,
2013-06-16 10:24:00,82.4,53.5,30.01,WSW,248,5.6,9.2,37,0.00,,,0.00,WUHU216HW,2013-06-16 15:24:00,
2013-06-16 10:29:00,83.0,55.5,30.01,West,270,8.1,8.1,39,0.00,,,0.00,WUHU216HW,2013-06-16 15:29:00,
2013-06-16 10:34:00,82.8,54.5,30.00,WSW,248,3.4,8.1,38,0.00,,,0.00,WUHU216HW,2013-06-16 15:34:00,
2013-06-16 10:39:00,83.2,54.1,30.00,WSW,248,7.2,7.2,37,0.00,,,0.00,WUHU216HW,2013-06-16 15:39:00,
2013-06-16 10:44:00,83.3,54.3,30.01,SW,225,1.6,7.2,37,0.00,,,0.00,WUHU216HW,2013-06-16 15:44:00,
2013-06-16 10:49:00,83.2,54.1,30.00,WSW,248,1.3,7.6,37,0.00,,,0.00,WUHU216HW,2013-06-16 15:49:00,
2013-06-16 10:54:00,83.3,55.0,30.01,SW,225,3.4,7.8,38,0.00,,,0.00,WUHU216HW,2013-06-16 15:54:00,
2013-06-16 10:59:00,83.5,53.7,30.01,WSW,248,5.4,7.8,36,0.00,,,0.00,WUHU216HW,2013-06-16 15:59:00,
2013-06-16 11:04:00,83.0,52.3,30.01,SW,225,4.0,8.9,35,0.00,,,0.00,WUHU216HW,2013-06-16 16:04:00,
2013-06-16 11:09:00,82.8,51.4,30.01,SSW,203,3.8,9.8,34,0.00,,,0.00,WUHU216HW,2013-06-16 16:09:00,
2013-06-16 11:14:00,83.3,54.3,30.01,WSW,248,4.7,9.8,37,0.00,,,0.00,WUHU216HW,2013-06-16 16:14:00,
2013-06-16 11:19:00,82.8,52.2,30.01,SW,225,6.3,8.3,35,0.00,,,0.00,WUHU216HW,2013-06-16 16:19:00,
2013-06-16 11:24:00,82.4,51.8,30.01,WSW,248,6.3,9.6,35,0.00,,,0.00,WUHU216HW,2013-06-16 16:24:00,
2013-06-16 11:29:00,82.3,51.7,30.01,WSW,248,4.5,10.5,35,0.00,,,0.00,WUHU216HW,2013-06-16 16:29:00,
2013-06-16 11:34:00,83.0,52.3,30.01,SW,225,4.7,10.5,35,0.00,,,0.00,WUHU216HW,2013-06-16 16:34:00,
2013-06-16 11:39:00,83.9,54.7,30.01,WSW,248,8.1,12.1,37,0.00,,,0.00,WUHU216HW,2013-06-16 16:39:00,
2013-06-16 11:44:00,83.9,54.7,30.01,SW,225,4.9,12.1,37,0.00,,,0.00,WUHU216HW,2013-06-16 16:44:00,
2013-06-16 11:49:00,84.2,53.5,30.01,WSW,248,2.5,10.5,35,0.00,,,0.00,WUHU216HW,2013-06-16 16:49:00,
2013-06-16 11:54:00,84.6,56.2,30.00,WSW,248,4.5,8.1,38,0.00,,,0.00,WUHU216HW,2013-06-16 16:54:00,
2013-06-16 11:59:00,84.2,55.1,30.01,WSW,248,4.3,8.3,37,0.00,,,0.00,WUHU216HW,2013-06-16 16:59:00,
2013-06-16 12:04:00,83.5,56.0,30.01,West,270,7.2,8.3,39,0.00,,,0.00,WUHU216HW,2013-06-16 17:04:00,
2013-06-16 12:09:00,83.5,52.8,30.01,WSW,248,2.9,8.7,35,0.00,,,0.00,WUHU216HW,2013-06-16 17:09:00,
2013-06-16 12:14:00,84.2,53.5,30.01,WSW,248,0.9,8.7,35,0.00,,,0.00,WUHU216HW,2013-06-16 17:14:00,
2013-06-16 12:19:00,84.6,55.4,30.01,SW,225,5.8,10.3,37,0.00,,,0.00,WUHU216HW,2013-06-16 17:19:00,
2013-06-16 12:24:00,85.0,54.1,30.01,SSW,203,2.5,10.3,35,0.00,,,0.00,WUHU216HW,2013-06-16 17:24:00,
2013-06-16 12:29:00,84.6,53.8,30.01,WSW,248,1.8,5.8,35,0.00,,,0.00,WUHU216HW,2013-06-16 17:29:00,
2013-06-16 12:34:00,84.6,52.2,30.01,SW,225,1.1,6.9,33,0.00,,,0.00,WUHU216HW,2013-06-16 17:34:00,
2013-06-16 12:39:00,85.7,57.2,30.01,SW,225,8.1,8.1,38,0.00,,,0.00,WUHU216HW,2013-06-16 17:39:00,
2013-06-16 12:44:00,85.9,55.7,30.01,WSW,248,5.4,8.1,36,0.00,,,0.00,WUHU216HW,2013-06-16 17:44:00,
2013-06-16 12:49:00,85.3,56.0,30.01,SW,225,4.3,8.5,37,0.00,,,0.00,WUHU216HW,2013-06-16 17:49:00,
2013-06-16 12:54:00,85.5,56.2,30.01,SW,225,6.3,8.5,37,0.00,,,0.00,WUHU216HW,2013-06-16 17:54:00,
2013-06-16 12:59:00,85.1,56.6,30.01,SW,225,6.9,9.4,38,0.00,,,0.00,WUHU216HW,2013-06-16 17:59:00,
2013-06-16 13:04:00,86.0,56.7,30.00,WSW,248,3.8,9.4,37,0.00,,,0.00,WUHU216HW,2013-06-16 18:04:00,
2013-06-16 13:09:00,85.7,57.2,30.00,SW,225,1.3,7.6,38,0.00,,,0.00,WUHU216HW,2013-06-16 18:09:00,
2013-06-16 13:14:00,85.7,57.2,30.00,SW,225,4.7,6.5,38,0.00,,,0.00,WUHU216HW,2013-06-16 18:14:00,
2013-06-16 13:19:00,86.6,60.1,30.00,WSW,248,4.7,9.6,41,0.00,,,0.00,WUHU216HW,2013-06-16 18:19:00,
2013-06-16 13:24:00,86.8,58.1,29.99,WSW,248,4.7,9.6,38,0.00,,,0.00,WUHU216HW,2013-06-16 18:24:00,
2013-06-16 13:29:00,86.9,60.5,29.99,SW,225,2.0,8.7,41,0.00,,,0.00,WUHU216HW,2013-06-16 18:29:00,
2013-06-16 13:33:00,87.5,55.5,29.99,SW,225,2.5,4.7,34,0.00,,,0.00,WUHU216HW,2013-06-16 18:33:00,
2013-06-16 13:38:00,86.8,60.9,29.99,WSW,248,8.3,9.2,42,0.00,,,0.00,WUHU216HW,2013-06-16 18:38:00,
2013-06-16 13:43:00,86.6,58.8,29.99,SSW,203,6.0,9.2,39,0.00,,,0.00,WUHU216HW,2013-06-16 18:43:00,
2013-06-16 13:48:00,86.2,58.4,29.99,WSW,248,0.9,8.3,39,0.00,,,0.00,WUHU216HW,2013-06-16 18:48:00,
2013-06-16 13:53:00,86.9,59.9,29.99,WSW,248,4.3,7.6,40,0.00,,,0.00,WUHU216HW,2013-06-16 18:53:00,
2013-06-16 13:58:00,87.3,59.4,29.99,WSW,248,3.4,7.6,39,0.00,,,0.00,WUHU216HW,2013-06-16 18:58:00,
2013-06-16 14:03:00,87.3,61.5,29.99,SSW,203,5.4,6.3,42,0.00,,,0.00,WUHU216HW,2013-06-16 19:03:00,
2013-06-16 14:08:00,86.8,61.6,29.99,WSW,248,7.4,7.4,43,0.00,,,0.00,WUHU216HW,2013-06-16 19:08:00,
2013-06-16 14:13:00,86.8,60.9,29.98,WSW,248,4.0,7.4,42,0.00,,,0.00,WUHU216HW,2013-06-16 19:13:00,
2013-06-16 14:18:00,87.1,61.9,29.99,WSW,248,5.4,7.4,43,0.00,,,0.00,WUHU216HW,2013-06-16 19:18:00,
2013-06-16 14:23:00,87.8,59.9,29.98,SW,225,0.7,6.9,39,0.00,,,0.00,WUHU216HW,2013-06-16 19:23:00,
2013-06-16 14:28:00,87.3,60.2,29.98,WSW,248,3.1,6.9,40,0.00,,,0.00,WUHU216HW,2013-06-16 19:28:00,
2013-06-16 14:33:00,86.4,60.0,29.98,WSW,248,3.4,8.3,41,0.00,,,0.00,WUHU216HW,2013-06-16 19:33:00,
2013-06-16 14:38:00,87.7,62.4,29.98,SSE,158,2.5,8.3,43,0.00,,,0.00,WUHU216HW,2013-06-16 19:38:00,
2013-06-16 14:43:00,87.7,62.4,29.98,WSW,248,4.9,6.0,43,0.00,,,0.00,WUHU216HW,2013-06-16 19:43:00,
2013-06-16 14:48:00,87.8,63.2,29.98,SW,225,4.3,6.3,44,0.00,,,0.00,WUHU216HW,2013-06-16 19:48:00,
2013-06-16 14:53:00,87.7,62.4,29.98,SW,225,4.0,6.3,43,0.00,,,0.00,WUHU216HW,2013-06-16 19:53:00,
2013-06-16 14:58:00,88.2,61.6,29.98,SW,225,1.3,5.4,41,0.00,,,0.00,WUHU216HW,2013-06-16 19:58:00,
2013-06-16 15:03:00,88.6,62.6,29.98,South,180,1.6,4.7,42,0.00,,,0.00,WUHU216HW,2013-06-16 20:03:00,
2013-06-16 15:08:00,88.2,62.2,29.98,West,270,0.9,4.7,42,0.00,,,0.00,WUHU216HW,2013-06-16 20:08:00,
2013-06-16 15:13:00,88.2,64.1,29.97,West,270,2.0,6.9,45,0.00,,,0.00,WUHU216HW,2013-06-16 20:13:00,
2013-06-16 15:18:00,88.6,63.8,29.97,WSW,248,5.4,6.9,44,0.00,,,0.00,WUHU216HW,2013-06-16 20:18:00,
2013-06-16 15:23:00,88.9,63.5,29.97,NNW,338,1.1,6.5,43,0.00,,,0.00,WUHU216HW,2013-06-16 20:23:00,
2013-06-16 15:28:00,89.5,62.7,29.97,SW,225,0.2,6.5,41,0.00,,,0.00,WUHU216HW,2013-06-16 20:28:00,
2013-06-16 15:33:00,89.5,64.5,29.96,WSW,248,0.4,4.0,44,0.00,,,0.00,WUHU216HW,2013-06-16 20:33:00,
2013-06-16 15:38:00,88.2,64.1,29.96,SSW,203,0.7,5.4,45,0.00,,,0.00,WUHU216HW,2013-06-16 20:38:00,
2013-06-16 15:43:00,87.8,61.3,29.96,WSW,248,3.4,5.4,41,0.00,,,0.00,WUHU216HW,2013-06-16 20:43:00,
2013-06-16 15:48:00,89.6,64.7,29.96,SW,225,3.4,4.7,44,0.00,,,0.00,WUHU216HW,2013-06-16 20:48:00,
2013-06-16 15:53:00,90.2,67.8,29.96,SW,225,2.9,4.7,48,0.00,,,0.00,WUHU216HW,2013-06-16 20:53:00,
2013-06-16 15:58:00,89.8,65.5,29.96,WSW,248,4.7,4.7,45,0.00,,,0.00,WUHU216HW,2013-06-16 20:58:00,
2013-06-16 16:03:00,89.8,64.2,29.96,WSW,248,4.7,6.5,43,0.00,,,0.00,WUHU216HW,2013-06-16 21:03:00,
2013-06-16 16:08:00,89.6,67.3,29.96,WSW,248,4.9,6.5,48,0.00,,,0.00,WUHU216HW,2013-06-16 21:08:00,
2013-06-16 16:13:00,89.6,67.3,29.96,WSW,248,4.9,4.9,48,0.00,,,0.00,WUHU216HW,2013-06-16 21:13:00,
2013-06-16 17:00:00,87.5,63.5,29.96,WSW,248,0.4,0.4,45,0.00,,,0.00,WUHU216HW,2013-06-16 22:00:00,
2013-06-16 17:05:00,87.3,63.4,29.96,WSW,248,0.4,2.5,45,0.00,,,0.00,WUHU216HW,2013-06-16 22:05:00,
2013-06-16 17:10:00,86.9,62.4,29.97,WSW,248,2.9,2.9,44,0.00,,,0.00,WUHU216HW,2013-06-16 22:10:00,
2013-06-16 17:15:00,86.6,62.6,29.96,West,270,4.0,4.7,45,0.00,,,0.00,WUHU216HW,2013-06-16 22:15:00,
2013-06-16 17:20:00,86.2,62.4,29.96,WSW,248,2.2,4.7,45,0.00,,,0.00,WUHU216HW,2013-06-16 22:20:00,
2013-06-16 17:25:00,86.4,61.3,29.95,WSW,248,1.1,4.0,43,0.00,,,0.00,WUHU216HW,2013-06-16 22:25:00,
2013-06-16 17:30:00,86.2,61.1,29.95,SW,225,0.0,3.6,43,0.00,,,0.00,WUHU216HW,2013-06-16 22:30:00,
2013-06-16 17:35:00,86.4,60.7,29.95,SW,225,0.0,1.3,42,0.00,,,0.00,WUHU216HW,2013-06-16 22:35:00,
2013-06-16 17:40:00,86.0,60.9,29.95,SW,225,0.9,0.9,43,0.00,,,0.00,WUHU216HW,2013-06-16 22:40:00,
2013-06-16 17:45:00,86.0,60.3,29.95,WSW,248,0.4,1.3,42,0.00,,,0.00,WUHU216HW,2013-06-16 22:45:00,
2013-06-16 17:50:00,85.9,60.1,29.95,SW,225,1.1,1.3,42,0.00,,,0.00,WUHU216HW,2013-06-16 22:50:00,
2013-06-16 17:55:00,85.9,58.9,29.94,SW,225,0.4,2.2,40,0.00,,,0.00,WUHU216HW,2013-06-16 22:55:00,
2013-06-16 18:00:00,85.9,59.5,29.94,SW,225,0.0,2.2,41,0.00,,,0.00,WUHU216HW,2013-06-16 23:00:00,
2013-06-16 18:05:00,85.7,59.3,29.94,SSW,203,0.7,1.6,41,0.00,,,0.00,WUHU216HW,2013-06-16 23:05:00,
2013-06-16 18:10:00,85.7,59.3,29.93,SW,225,0.0,1.6,41,0.00,,,0.00,WUHU216HW,2013-06-16 23:10:00,
2013-06-16 18:15:00,85.3,59.1,29.93,South,180,0.0,1.6,41,0.00,,,0.00,WUHU216HW,2013-06-16 23:15:00,
2013-06-16 18:20:00,85.1,58.9,29.94,SE,135,0.4,1.3,41,0.00,,,0.00,WUHU216HW,2013-06-16 23:20:00,
2013-06-16 18:25:00,84.8,57.9,29.94,WSW,248,0.9,2.2,40,0.00,,,0.00,WUHU216HW,2013-06-16 23:25:00,
2013-06-16 18:30:00,84.8,57.9,29.94,SW,225,0.0,2.2,40,0.00,,,0.00,WUHU216HW,2013-06-16 23:30:00,
2013-06-16 18:35:00,84.8,57.9,29.94,SW,225,0.0,2.0,40,0.00,,,0.00,WUHU216HW,2013-06-16 23:35:00,
2013-06-16 18:40:00,85.0,57.2,29.94,SW,225,0.4,0.9,39,0.00,,,0.00,WUHU216HW,2013-06-16 23:40:00,
2013-06-16 18:45:00,85.0,57.2,29.94,SW,225,0.0,1.1,39,0.00,,,0.00,WUHU216HW,2013-06-16 23:45:00,
2013-06-16 18:50:00,84.8,57.2,29.94,SW,225,0.2,1.1,39,0.00,,,0.00,WUHU216HW,2013-06-16 23:50:00,
2013-06-16 18:55:00,84.8,57.2,29.94,SW,225,0.7,1.1,39,0.00,,,0.00,WUHU216HW,2013-06-16 23:55:00,
2013-06-16 19:00:00,84.6,57.0,29.94,WSW,248,1.3,1.8,39,0.00,,,0.00,WUHU216HW,2013-06-17 00:00:00,
2013-06-16 19:05:00,84.4,56.0,29.94,WSW,248,0.9,1.8,38,0.00,,,0.00,WUHU216HW,2013-06-17 00:05:00,
2013-06-16 19:10:00,84.2,55.8,29.95,WSW,248,1.6,2.5,38,0.00,,,0.00,WUHU216HW,2013-06-17 00:10:00,
2013-06-16 19:15:00,83.9,54.7,29.95,WSW,248,0.7,2.5,37,0.00,,,0.00,WUHU216HW,2013-06-17 00:15:00,
2013-06-16 19:20:00,83.5,54.4,29.96,WSW,248,0.7,2.5,37,0.00,,,0.00,WUHU216HW,2013-06-17 00:20:00,
2013-06-16 19:25:00,83.2,52.5,29.95,WSW,248,0.0,2.0,35,0.00,,,0.00,WUHU216HW,2013-06-17 00:25:00,
2013-06-16 19:30:00,83.2,51.7,29.96,WSW,248,1.1,2.0,34,0.00,,,0.00,WUHU216HW,2013-06-17 00:30:00,
2013-06-16 19:35:00,82.8,51.4,29.95,WSW,248,0.0,1.1,34,0.00,,,0.00,WUHU216HW,2013-06-17 00:35:00,
2013-06-16 19:40:00,82.8,51.4,29.95,WSW,248,0.0,1.1,34,0.00,,,0.00,WUHU216HW,2013-06-17 00:40:00,
2013-06-16 19:45:00,82.4,51.0,29.95,WSW,248,0.0,0.0,34,0.00,,,0.00,WUHU216HW,2013-06-17 00:45:00,
2013-06-16 19:49:00,82.4,51.0,29.95,WSW,248,0.0,0.0,34,0.00,,,0.00,WUHU216HW,2013-06-17 00:49:00,
2013-06-16 19:54:00,82.3,50.1,29.95,WSW,248,0.0,0.7,33,0.00,,,0.00,WUHU216HW,2013-06-17 00:54:00,
2013-06-16 19:59:00,81.9,49.8,29.94,WSW,248,0.0,0.7,33,0.00,,,0.00,WUHU216HW,2013-06-17 00:59:00,
2013-06-16 20:04:00,81.9,49.8,29.94,WSW,248,1.1,1.1,33,0.00,,,0.00,WUHU216HW,2013-06-17 01:04:00,
2013-06-16 20:09:00,81.5,49.5,29.95,WSW,248,0.0,1.1,33,0.00,,,0.00,WUHU216HW,2013-06-17 01:09:00,
2013-06-16 20:14:00,81.4,49.3,29.95,WSW,248,0.0,1.1,33,0.00,,,0.00,WUHU216HW,2013-06-17 01:14:00,
2013-06-16 20:19:00,81.0,49.1,29.95,WSW,248,0.0,0.4,33,0.00,,,0.00,WUHU216HW,2013-06-17 01:19:00,
2013-06-16 20:24:00,80.6,48.8,29.95,WSW,248,0.0,0.4,33,0.00,,,0.00,WUHU216HW,2013-06-17 01:24:00,
2013-06-16 20:29:00,80.3,48.4,29.95,SSE,158,0.4,0.4,33,0.00,,,0.00,WUHU216HW,2013-06-17 01:29:00,
2013-06-16 20:34:00,80.1,48.2,29.94,SSE,158,1.6,1.8,33,0.00,,,0.00,WUHU216HW,2013-06-17 01:34:00,
2013-06-16 20:39:00,79.7,48.0,29.94,SSE,158,1.3,1.8,33,0.00,,,0.00,WUHU216HW,2013-06-17 01:39:00,
2013-06-16 20:44:00,79.2,47.4,29.94,South,180,0.2,1.6,33,0.00,,,0.00,WUHU216HW,2013-06-17 01:44:00,
2013-06-16 20:49:00,79.0,47.4,29.94,SSE,158,1.1,1.3,33,0.00,,,0.00,WUHU216HW,2013-06-17 01:49:00,
2013-06-16 20:54:00,78.8,47.2,29.94,SSW,203,0.0,1.1,33,0.00,,,0.00,WUHU216HW,2013-06-17 01:54:00,
2013-06-16 20:59:00,78.8,47.2,29.94,SSW,203,0.9,1.1,33,0.00,,,0.00,WUHU216HW,2013-06-17 01:59:00,
2013-06-16 21:04:00,78.5,46.8,29.94,WSW,248,1.1,2.5,33,0.00,,,0.00,WUHU216HW,2013-06-17 02:04:00,
2013-06-16 21:09:00,78.1,46.5,29.94,WSW,248,0.0,2.5,33,0.00,,,0.00,WUHU216HW,2013-06-17 02:09:00,
2013-06-16 21:14:00,77.8,46.3,29.94,SW,225,0.0,1.1,33,0.00,,,0.00,WUHU216HW,2013-06-17 02:14:00,
2013-06-16 21:19:00,77.8,46.3,29.94,SW,225,0.0,0.9,33,0.00,,,0.00,WUHU216HW,2013-06-17 02:19:00,
2013-06-16 21:24:00,77.6,46.1,29.94,SW,225,0.0,0.9,33,0.00,,,0.00,WUHU216HW,2013-06-17 02:24:00,
2013-06-16 21:29:00,77.6,46.1,29.94,SW,225,0.0,1.1,33,0.00,,,0.00,WUHU216HW,2013-06-17 02:29:00,
2013-06-16 21:34:00,77.4,46.0,29.94,SW,225,0.0,1.1,33,0.00,,,0.00,WUHU216HW,2013-06-17 02:34:00,
2013-06-16 21:39:00,77.2,45.8,29.94,SW,225,0.2,0.9,33,0.00,,,0.00,WUHU216HW,2013-06-17 02:39:00,
2013-06-16 21:44:00,77.0,45.6,29.95,SSW,203,1.1,1.1,33,0.00,,,0.00,WUHU216HW,2013-06-17 02:44:00,
2013-06-16 21:49:00,76.9,45.5,29.95,WSW,248,1.6,3.1,33,0.00,,,0.00,WUHU216HW,2013-06-17 02:49:00,
2013-06-16 21:54:00,76.7,45.4,29.95,SSW,203,3.1,3.8,33,0.00,,,0.00,WUHU216HW,2013-06-17 02:54:00,
2013-06-16 21:59:00,76.3,45.0,29.96,SSW,203,1.3,3.8,33,0.00,,,0.00,WUHU216HW,2013-06-17 02:59:00,
2013-06-16 22:04:00,76.1,44.8,29.96,WSW,248,3.8,5.6,33,0.00,,,0.00,WUHU216HW,2013-06-17 03:04:00,
2013-06-16 22:09:00,76.1,44.8,29.97,WSW,248,4.0,5.6,33,0.00,,,0.00,WUHU216HW,2013-06-17 03:09:00,
2013-06-16 22:14:00,76.0,44.6,29.97,SSW,203,4.0,6.0,33,0.00,,,0.00,WUHU216HW,2013-06-17 03:14:00,
2013-06-16 22:19:00,75.6,44.4,29.98,West,270,4.7,6.0,33,0.00,,,0.00,WUHU216HW,2013-06-17 03:19:00,
2013-06-16 22:24:00,75.2,44.8,29.98,WSW,248,4.3,5.4,34,0.00,,,0.00,WUHU216HW,2013-06-17 03:24:00,
2013-06-16 22:29:00,75.1,44.7,29.98,WSW,248,2.5,5.4,34,0.00,,,0.00,WUHU216HW,2013-06-17 03:29:00,
2013-06-16 22:34:00,74.5,44.1,29.97,SW,225,2.0,4.5,34,0.00,,,0.00,WUHU216HW,2013-06-17 03:34:00,
2013-06-16 22:39:00,74.2,43.8,29.98,SW,225,0.4,4.5,34,0.00,,,0.00,WUHU216HW,2013-06-17 03:39:00,
2013-06-16 22:44:00,73.8,43.5,29.99,WSW,248,3.6,3.6,34,0.00,,,0.00,WUHU216HW,2013-06-17 03:44:00,
2013-06-16 22:49:00,73.8,43.5,29.99,SW,225,1.8,4.0,34,0.00,,,0.00,WUHU216HW,2013-06-17 03:49:00,
2013-06-16 22:54:00,73.1,42.8,29.99,WSW,248,1.8,4.0,34,0.00,,,0.00,WUHU216HW,2013-06-17 03:54:00,
2013-06-16 22:59:00,72.9,42.8,29.98,WSW,248,1.3,2.5,34,0.00,,,0.00,WUHU216HW,2013-06-17 03:59:00,
2013-06-16 23:01:00,72.7,42.6,29.98,WSW,248,1.8,2.5,34,0.00,,,0.00,WUHU216HW,2013-06-17 04:01:00,
2013-06-16 23:06:00,72.5,42.4,29.99,WSW,248,1.3,2.7,34,0.00,,,0.00,WUHU216HW,2013-06-17 04:06:00,
2013-06-16 23:11:00,72.4,42.3,29.99,WSW,248,1.6,2.7,34,0.00,,,0.00,WUHU216HW,2013-06-17 04:11:00,
2013-06-16 23:16:00,72.4,42.3,29.99,SW,225,0.0,1.6,34,0.00,,,0.00,WUHU216HW,2013-06-17 04:16:00,
2013-06-16 23:21:00,71.8,41.8,29.99,SW,225,0.0,1.8,34,0.00,,,0.00,WUHU216HW,2013-06-17 04:21:00,
2013-06-16 23:26:00,71.5,41.5,29.99,SW,225,0.0,1.8,34,0.00,,,0.00,WUHU216HW,2013-06-17 04:26:00,
2013-06-16 23:31:00,71.3,41.3,29.98,SW,225,0.4,0.4,34,0.00,,,0.00,WUHU216HW,2013-06-17 04:31:00,
2013-06-16 23:36:00,70.9,41.8,29.98,SW,225,0.0,0.4,35,0.00,,,0.00,WUHU216HW,2013-06-17 04:36:00,
2013-06-16 23:41:00,70.7,41.6,29.98,SW,225,0.0,0.0,35,0.00,,,0.00,WUHU216HW,2013-06-17 04:41:00,
2013-06-16 23:46:00,70.7,41.6,29.98,SW,225,0.0,0.0,35,0.00,,,0.00,WUHU216HW,2013-06-17 04:46:00,
2013-06-16 23:51:00,70.6,41.4,29.98,SW,225,0.0,0.0,35,0.00,,,0.00,WUHU216HW,2013-06-17 04:51:00,
2013-06-16 23:56:00,70.2,41.1,29.98,SW,225,0.0,0.4,35,0.00,,,0.00,WUHU216HW,2013-06-17 04:56:00,